Time,TemperatureF,DewpointF,PressureIn,WindDirection,WindDirectionDegrees,WindSpeedMPH,WindSpeedGustMPH,Humidity,HourlyPrecipIn,Conditions,Clouds,dailyrainin,SoftwareType,DateUTC
2013-03-05 00:02:00,28.0,16.0,30.06,ENE,75,0.0,-999.0,60,-99.99,,,-99.99,,2013-03-05 05:02:00,
2013-03-05 00:12:00,28.0,16.0,30.06,ENE,75,0.0,-999.0,60,-99.99,,,-99.99,,2013-03-05 05:12:00,
2013-03-05 00:22:00,28.0,16.0,30.07,ENE,75,0.0,-999.0,59,-99.99,,,-99.99,,2013-03-05 05:22:00,
2013-03-05 00:32:00,29.0,16.0,30.07,ENE,75,0.0,-999.0,59,-99.99,,,-99.99,,2013-03-05 05:32:00,
2013-03-05 00:42:00,29.0,16.0,30.07,ENE,75,0.0,-999.0,59,-99.99,,,-99.99,,2013-03-05 05:42:00,
2013-03-05 00:52:00,29.0,16.0,30.07,ENE,75,0.0,-999.0,59,-99.99,,,-99.99,,2013-03-05 05:52:00,
2013-03-05 01:01:00,28.0,16.0,30.07,SE,138,1.0,-999.0,60,-99.99,,,-99.99,,2013-03-05 06:01:00,
2013-03-05 01:11:00,28.0,16.0,30.07,SE,138,1.0,-999.0,60,-99.99,,,-99.99,,2013-03-05 06:11:00,
2013-03-05 01:22:00,28.0,16.0,30.08,SE,138,0.0,-999.0,61,-99.99,,,-99.99,,2013-03-05 06:22:00,
2013-03-05 01:32:00,28.0,17.0,30.08,SSW,209,0.0,-999.0,62,-99.99,,,-99.99,,2013-03-05 06:32:00,
2013-03-05 01:42:00,28.0,17.0,30.08,SSW,209,0.0,-999.0,62,-99.99,,,-99.99,,2013-03-05 06:42:00,
2013-03-05 01:52:00,28.0,17.0,30.08,SSW,209,0.0,-999.0,62,-99.99,,,-99.99,,2013-03-05 06:52:00,
2013-03-05 02:01:00,28.0,17.0,30.08,SSW,209,0.0,-999.0,62,-99.99,,,-99.99,,2013-03-05 07:01:00,
2013-03-05 02:11:00,28.0,17.0,30.08,SSW,209,0.0,-999.0,62,-99.99,,,-99.99,,2013-03-05 07:11:00,
2013-03-05 02:22:00,27.0,16.0,30.07,SSW,209,0.0,-999.0,63,-99.99,,,-99.99,,2013-03-05 07:22:00,
2013-03-05 02:31:00,26.0,16.0,30.07,SSW,209,0.0,-999.0,64,-99.99,,,-99.99,,2013-03-05 07:31:00,
2013-03-05 02:42:00,26.0,16.0,30.07,SSW,209,0.0,-999.0,64,-99.99,,,-99.99,,2013-03-05 07:42:00,
2013-03-05 02:52:00,26.0,16.0,30.07,SSW,209,0.0,-999.0,65,-99.99,,,-99.99,,2013-03-05 07:52:00,
2013-03-05 03:02:00,25.0,15.0,30.08,SSW,209,0.0,-999.0,66,-99.99,,,-99.99,,2013-03-05 08:02:00,
2013-03-05 03:11:00,25.0,15.0,30.08,SSW,209,0.0,-999.0,66,-99.99,,,-99.99,,2013-03-05 08:11:00,
2013-03-05 03:21:00,25.0,16.0,30.08,SSW,209,0.0,-999.0,67,-99.99,,,-99.99,,2013-03-05 08:21:00,
2013-03-05 03:31:00,24.0,15.0,30.09,SSW,209,0.0,-999.0,68,-99.99,,,-99.99,,2013-03-05 08:31:00,
2013-03-05 03:41:00,24.0,15.0,30.09,SSW,209,0.0,-999.0,68,-99.99,,,-99.99,,2013-03-05 08:41:00,
2013-03-05 03:52:00,24.0,15.0,30.08,SSW,209,0.0,-999.0,68,-99.99,,,-99.99,,2013-03-05 08:52:00,
2013-03-05 04:01:00,24.0,16.0,30.09,SSW,209,0.0,-999.0,70,-99.99,,,-99.99,,2013-03-05 09:01:00,
2013-03-05 04:11:00,24.0,16.0,30.09,SSW,209,0.0,-999.0,70,-99.99,,,-99.99,,2013-03-05 09:11:00,
2013-03-05 04:21:00,23.0,15.0,30.09,SSW,209,0.0,-999.0,71,-99.99,,,-99.99,,2013-03-05 09:21:00,
2013-03-05 04:32:00,22.0,15.0,30.09,WNW,298,0.0,-999.0,73,-99.99,,,-99.99,,2013-03-05 09:32:00,
2013-03-05 04:42:00,22.0,15.0,30.09,WNW,298,0.0,-999.0,73,-99.99,,,-99.99,,2013-03-05 09:42:00,
2013-03-05 04:52:00,22.0,15.0,30.09,NNE,17,0.0,-999.0,75,-99.99,,,-99.99,,2013-03-05 09:52:00,
2013-03-05 05:01:00,21.0,15.0,30.09,NNE,23,0.0,-999.0,76,-99.99,,,-99.99,,2013-03-05 10:01:00,
2013-03-05 05:11:00,21.0,15.0,30.09,NNE,23,0.0,-999.0,76,-99.99,,,-99.99,,2013-03-05 10:11:00,
2013-03-05 05:21:00,21.0,15.0,30.09,NNE,23,0.0,-999.0,77,-99.99,,,-99.99,,2013-03-05 10:21:00,
2013-03-05 05:32:00,21.0,15.0,30.09,NE,35,1.0,-999.0,77,-99.99,,,-99.99,,2013-03-05 10:32:00,
2013-03-05 05:42:00,21.0,15.0,30.09,NE,35,1.0,-999.0,77,-99.99,,,-99.99,,2013-03-05 10:42:00,
2013-03-05 05:52:00,21.0,15.0,30.09,NE,35,0.0,-999.0,77,-99.99,,,-99.99,,2013-03-05 10:52:00,
2013-03-05 06:01:00,21.0,15.0,30.09,NE,35,0.0,-999.0,77,-99.99,,,-99.99,,2013-03-05 11:01:00,
2013-03-05 06:11:00,21.0,15.0,30.09,NE,35,0.0,-999.0,77,-99.99,,,-99.99,,2013-03-05 11:11:00,
2013-03-05 06:22:00,21.0,15.0,30.09,NE,35,0.0,-999.0,76,-99.99,,,-99.99,,2013-03-05 11:22:00,
2013-03-05 06:32:00,21.0,15.0,30.10,NE,35,0.0,-999.0,77,-99.99,,,-99.99,,2013-03-05 11:32:00,
2013-03-05 06:42:00,21.0,15.0,30.10,NE,35,0.0,-999.0,77,-99.99,,,-99.99,,2013-03-05 11:42:00,
2013-03-05 06:52:00,21.0,15.0,30.09,ENE,78,1.0,-999.0,78,-99.99,,,-99.99,,2013-03-05 11:52:00,
2013-03-05 07:02:00,21.0,15.0,30.09,ENE,78,0.0,-999.0,78,-99.99,,,-99.99,,2013-03-05 12:02:00,
2013-03-05 07:12:00,21.0,15.0,30.09,ENE,78,0.0,-999.0,78,-99.99,,,-99.99,,2013-03-05 12:12:00,
2013-03-05 07:22:00,21.0,16.0,30.10,ENE,78,0.0,-999.0,79,-99.99,,,-99.99,,2013-03-05 12:22:00,
2013-03-05 07:32:00,21.0,16.0,30.09,ENE,78,0.0,-999.0,80,-99.99,,,-99.99,,2013-03-05 12:32:00,
2013-03-05 07:42:00,21.0,16.0,30.09,ENE,78,0.0,-999.0,80,-99.99,,,-99.99,,2013-03-05 12:42:00,
2013-03-05 07:53:00,21.0,16.0,30.09,ENE,78,0.0,-999.0,80,-99.99,,,-99.99,,2013-03-05 12:53:00,
2013-03-05 08:02:00,21.0,16.0,30.10,ENE,78,0.0,-999.0,81,-99.99,,,-99.99,,2013-03-05 13:02:00,
2013-03-05 08:12:00,21.0,16.0,30.10,ENE,78,0.0,-999.0,81,-99.99,,,-99.99,,2013-03-05 13:12:00,
2013-03-05 08:22:00,22.0,17.0,30.10,ENE,78,0.0,-999.0,82,-99.99,,,-99.99,,2013-03-05 13:22:00,
2013-03-05 08:32:00,23.0,18.0,30.11,ENE,76,0.0,-999.0,81,-99.99,,,-99.99,,2013-03-05 13:32:00,
2013-03-05 08:42:00,23.0,18.0,30.11,ENE,76,0.0,-999.0,81,-99.99,,,-99.99,,2013-03-05 13:42:00,
2013-03-05 08:52:00,25.0,18.0,30.10,NE,37,1.0,-999.0,73,-99.99,,,-99.99,,2013-03-05 13:52:00,
2013-03-05 09:02:00,27.0,18.0,30.10,North,357,1.0,-999.0,67,-99.99,,,-99.99,,2013-03-05 14:02:00,
2013-03-05 09:11:00,27.0,18.0,30.10,North,357,1.0,-999.0,67,-99.99,,,-99.99,,2013-03-05 14:11:00,
2013-03-05 09:22:00,28.0,16.0,30.10,North,359,1.0,-999.0,61,-99.99,,,-99.99,,2013-03-05 14:22:00,
2013-03-05 09:32:00,30.0,17.0,30.10,North,354,2.0,-999.0,59,-99.99,,,-99.99,,2013-03-05 14:32:00,
2013-03-05 09:42:00,30.0,17.0,30.10,North,354,2.0,-999.0,59,-99.99,,,-99.99,,2013-03-05 14:42:00,
2013-03-05 09:52:00,31.0,17.0,30.09,SW,216,2.0,-999.0,56,-99.99,,,-99.99,,2013-03-05 14:52:00,
2013-03-05 10:02:00,32.0,18.0,30.09,NE,48,2.0,-999.0,55,-99.99,,,-99.99,,2013-03-05 15:02:00,
2013-03-05 10:11:00,32.0,18.0,30.09,NE,48,2.0,-999.0,55,-99.99,,,-99.99,,2013-03-05 15:11:00,
2013-03-05 10:21:00,32.0,17.0,30.09,NNW,343,1.0,-999.0,53,-99.99,,,-99.99,,2013-03-05 15:21:00,
2013-03-05 10:32:00,33.0,17.0,30.09,North,356,1.0,-999.0,51,-99.99,,,-99.99,,2013-03-05 15:32:00,
2013-03-05 10:42:00,33.0,17.0,30.09,North,356,1.0,-999.0,51,-99.99,,,-99.99,,2013-03-05 15:42:00,
2013-03-05 10:52:00,36.0,16.0,30.09,West,272,2.0,-999.0,44,-99.99,,,-99.99,,2013-03-05 15:52:00,
2013-03-05 11:01:00,37.0,16.0,30.07,NW,323,3.0,-999.0,42,-99.99,,,-99.99,,2013-03-05 16:01:00,
2013-03-05 11:11:00,37.0,16.0,30.07,NW,323,3.0,-999.0,42,-99.99,,,-99.99,,2013-03-05 16:11:00,
2013-03-05 11:22:00,39.0,17.0,30.06,NNW,343,1.0,-999.0,40,-99.99,,,-99.99,,2013-03-05 16:22:00,
2013-03-05 11:32:00,40.0,16.0,30.05,SW,236,1.0,-999.0,38,-99.99,,,-99.99,,2013-03-05 16:32:00,
2013-03-05 11:42:00,40.0,16.0,30.05,SW,236,1.0,-999.0,38,-99.99,,,-99.99,,2013-03-05 16:42:00,
2013-03-05 11:52:00,41.0,18.0,30.06,WNW,287,1.0,-999.0,39,-99.99,,,-99.99,,2013-03-05 16:52:00,
2013-03-05 12:01:00,42.0,17.0,30.07,NNW,330,2.0,-999.0,36,-99.99,,,-99.99,,2013-03-05 17:01:00,
2013-03-05 12:11:00,42.0,17.0,30.07,NNW,330,2.0,-999.0,36,-99.99,,,-99.99,,2013-03-05 17:11:00,
2013-03-05 12:21:00,42.0,17.0,30.05,NW,319,2.0,-999.0,36,-99.99,,,-99.99,,2013-03-05 17:21:00,
2013-03-05 12:32:00,42.0,15.0,30.05,WSW,251,2.0,-999.0,33,-99.99,,,-99.99,,2013-03-05 17:32:00,
2013-03-05 12:42:00,42.0,15.0,30.05,WSW,251,2.0,-999.0,33,-99.99,,,-99.99,,2013-03-05 17:42:00,
2013-03-05 12:53:00,43.0,15.0,30.04,NW,312,2.0,-999.0,32,-99.99,,,-99.99,,2013-03-05 17:53:00,
2013-03-05 13:02:00,44.0,16.0,30.03,SSW,208,0.0,-999.0,32,-99.99,,,-99.99,,2013-03-05 18:02:00,
2013-03-05 13:11:00,44.0,16.0,30.03,SSW,208,0.0,-999.0,32,-99.99,,,-99.99,,2013-03-05 18:11:00,
2013-03-05 13:22:00,44.0,16.0,30.02,NW,313,2.0,-999.0,32,-99.99,,,-99.99,,2013-03-05 18:22:00,
2013-03-05 13:32:00,44.0,17.0,30.01,NNE,17,4.0,-999.0,33,-99.99,,,-99.99,,2013-03-05 18:32:00,
2013-03-05 13:42:00,44.0,17.0,30.01,NNE,17,4.0,-999.0,33,-99.99,,,-99.99,,2013-03-05 18:42:00,
2013-03-05 13:53:00,44.0,15.0,30.00,NE,52,2.0,-999.0,31,-99.99,,,-99.99,,2013-03-05 18:53:00,
2013-03-05 14:01:00,44.0,15.0,29.99,North,354,1.0,-999.0,31,-99.99,,,-99.99,,2013-03-05 19:01:00,
2013-03-05 14:11:00,44.0,15.0,29.99,North,354,1.0,-999.0,31,-99.99,,,-99.99,,2013-03-05 19:11:00,
2013-03-05 14:21:00,45.0,15.0,29.98,South,178,0.0,-999.0,30,-99.99,,,-99.99,,2013-03-05 19:21:00,
2013-03-05 14:32:00,46.0,16.0,29.97,West,267,2.0,-999.0,30,-99.99,,,-99.99,,2013-03-05 19:32:00,
2013-03-05 14:42:00,46.0,16.0,29.97,West,267,2.0,-999.0,30,-99.99,,,-99.99,,2013-03-05 19:42:00,
2013-03-05 14:52:00,46.0,15.0,29.96,North,356,2.0,-999.0,28,-99.99,,,-99.99,,2013-03-05 19:52:00,
2013-03-05 15:01:00,47.0,16.0,29.96,NNE,20,1.0,-999.0,28,-99.99,,,-99.99,,2013-03-05 20:01:00,
2013-03-05 15:11:00,47.0,14.0,29.94,North,0,3.0,-999.0,26,-99.99,,,-99.99,,2013-03-05 20:11:00,
2013-03-05 15:22:00,47.0,14.0,29.94,North,0,3.0,-999.0,26,-99.99,,,-99.99,,2013-03-05 20:22:00,
2013-03-05 15:32:00,48.0,15.0,29.93,ENE,66,1.0,-999.0,26,-99.99,,,-99.99,,2013-03-05 20:32:00,
2013-03-05 15:42:00,48.0,15.0,29.93,ENE,66,1.0,-999.0,26,-99.99,,,-99.99,,2013-03-05 20:42:00,
2013-03-05 15:52:00,49.0,16.0,29.93,NE,37,3.0,-999.0,26,-99.99,,,-99.99,,2013-03-05 20:52:00,
2013-03-05 16:02:00,49.0,17.0,29.93,NE,45,2.0,-999.0,28,-99.99,,,-99.99,,2013-03-05 21:02:00,
2013-03-05 16:11:00,49.0,17.0,29.93,NE,45,2.0,-999.0,28,-99.99,,,-99.99,,2013-03-05 21:11:00,
2013-03-05 16:22:00,49.0,18.0,29.93,NNE,13,3.0,-999.0,29,-99.99,,,-99.99,,2013-03-05 21:22:00,
2013-03-05 16:32:00,50.0,19.0,29.93,ESE,120,2.0,-999.0,29,-99.99,,,-99.99,,2013-03-05 21:32:00,
2013-03-05 16:42:00,50.0,19.0,29.93,ESE,120,2.0,-999.0,29,-99.99,,,-99.99,,2013-03-05 21:42:00,
2013-03-05 16:52:00,49.0,19.0,29.93,East,86,3.0,-999.0,30,-99.99,,,-99.99,,2013-03-05 21:52:00,
2013-03-05 17:01:00,49.0,20.0,29.94,East,86,2.0,-999.0,32,-99.99,,,-99.99,,2013-03-05 22:01:00,
2013-03-05 17:11:00,49.0,20.0,29.94,East,86,2.0,-999.0,32,-99.99,,,-99.99,,2013-03-05 22:11:00,
2013-03-05 17:22:00,48.0,20.0,29.94,ESE,104,3.0,-999.0,33,-99.99,,,-99.99,,2013-03-05 22:22:00,
2013-03-05 17:32:00,47.0,19.0,29.94,ESE,119,3.0,-999.0,33,-99.99,,,-99.99,,2013-03-05 22:32:00,
2013-03-05 17:42:00,47.0,19.0,29.94,ESE,119,3.0,-999.0,33,-99.99,,,-99.99,,2013-03-05 22:42:00,
2013-03-05 17:52:00,46.0,20.0,29.94,East,92,2.0,-999.0,35,-99.99,,,-99.99,,2013-03-05 22:52:00,
2013-03-05 18:01:00,44.0,20.0,29.94,ESE,102,2.0,-999.0,38,-99.99,,,-99.99,,2013-03-05 23:01:00,
2013-03-05 18:11:00,44.0,20.0,29.94,ESE,102,2.0,-999.0,38,-99.99,,,-99.99,,2013-03-05 23:11:00,
2013-03-05 18:21:00,43.0,22.0,29.93,ENE,68,1.0,-999.0,42,-99.99,,,-99.99,,2013-03-05 23:21:00,
2013-03-05 18:32:00,41.0,22.0,29.93,East,88,3.0,-999.0,46,-99.99,,,-99.99,,2013-03-05 23:32:00,
2013-03-05 18:42:00,41.0,22.0,29.93,East,88,3.0,-999.0,46,-99.99,,,-99.99,,2013-03-05 23:42:00,
2013-03-05 18:53:00,40.0,22.0,29.93,ENE,66,3.0,-999.0,48,-99.99,,,-99.99,,2013-03-05 23:53:00,
2013-03-05 19:01:00,39.0,21.0,29.93,ENE,75,2.0,-999.0,49,-99.99,,,-99.99,,2013-03-06 00:01:00,
2013-03-05 19:11:00,39.0,21.0,29.93,ENE,75,2.0,-999.0,49,-99.99,,,-99.99,,2013-03-06 00:11:00,
2013-03-05 19:21:00,39.0,22.0,29.92,ENE,61,4.0,-999.0,50,-99.99,,,-99.99,,2013-03-06 00:21:00,
2013-03-05 19:32:00,39.0,22.0,29.91,ENE,66,4.0,-999.0,51,-99.99,,,-99.99,,2013-03-06 00:32:00,
2013-03-05 19:42:00,39.0,22.0,29.91,ENE,66,4.0,-999.0,51,-99.99,,,-99.99,,2013-03-06 00:42:00,
2013-03-05 19:52:00,39.0,24.0,29.91,NE,56,3.0,-999.0,54,-99.99,,,-99.99,,2013-03-06 00:52:00,
2013-03-05 20:02:00,39.0,24.0,29.91,NE,56,5.0,-999.0,54,-99.99,,,-99.99,,2013-03-06 01:02:00,
2013-03-05 20:11:00,39.0,24.0,29.91,NE,56,5.0,-999.0,54,-99.99,,,-99.99,,2013-03-06 01:11:00,
2013-03-05 20:21:00,39.0,24.0,29.91,ENE,58,7.0,-999.0,55,-99.99,,,-99.99,,2013-03-06 01:21:00,
2013-03-05 20:32:00,40.0,25.0,29.90,NE,56,7.0,-999.0,54,-99.99,,,-99.99,,2013-03-06 01:32:00,
2013-03-05 20:42:00,40.0,25.0,29.90,NE,56,7.0,-999.0,54,-99.99,,,-99.99,,2013-03-06 01:42:00,
2013-03-05 20:52:00,40.0,24.0,29.90,ESE,117,6.0,-999.0,53,-99.99,,,-99.99,,2013-03-06 01:52:00,
2013-03-05 21:01:00,40.0,24.0,29.90,ESE,119,3.0,-999.0,53,-99.99,,,-99.99,,2013-03-06 02:01:00,
2013-03-05 21:11:00,40.0,24.0,29.90,ESE,119,3.0,-999.0,53,-99.99,,,-99.99,,2013-03-06 02:11:00,
2013-03-05 21:22:00,40.0,24.0,29.89,SE,143,3.0,-999.0,53,-99.99,,,-99.99,,2013-03-06 02:22:00,
2013-03-05 21:32:00,40.0,25.0,29.88,ESE,110,4.0,-999.0,54,-99.99,,,-99.99,,2013-03-06 02:32:00,
2013-03-05 21:42:00,40.0,25.0,29.88,ESE,110,4.0,-999.0,54,-99.99,,,-99.99,,2013-03-06 02:42:00,
2013-03-05 21:52:00,39.0,24.0,29.86,SE,124,4.0,-999.0,54,-99.99,,,-99.99,,2013-03-06 02:52:00,
2013-03-05 22:02:00,39.0,24.0,29.87,East,95,4.0,-999.0,55,-99.99,,,-99.99,,2013-03-06 03:02:00,
2013-03-05 22:11:00,39.0,24.0,29.87,East,95,4.0,-999.0,55,-99.99,,,-99.99,,2013-03-06 03:11:00,
2013-03-05 22:22:00,39.0,24.0,29.86,ESE,104,4.0,-999.0,55,-99.99,,,-99.99,,2013-03-06 03:22:00,
2013-03-05 22:32:00,39.0,25.0,29.85,SE,140,3.0,-999.0,56,-99.99,,,-99.99,,2013-03-06 03:32:00,
2013-03-05 22:42:00,39.0,25.0,29.85,SE,140,3.0,-999.0,56,-99.99,,,-99.99,,2013-03-06 03:42:00,
2013-03-05 22:52:00,39.0,25.0,29.86,SE,124,3.0,-999.0,56,-99.99,,,-99.99,,2013-03-06 03:52:00,
2013-03-05 23:02:00,39.0,25.0,29.86,ESE,114,3.0,-999.0,57,-99.99,,,-99.99,,2013-03-06 04:02:00,
2013-03-05 23:11:00,39.0,25.0,29.86,ESE,114,3.0,-999.0,57,-99.99,,,-99.99,,2013-03-06 04:11:00,
2013-03-05 23:22:00,39.0,25.0,29.85,ESE,107,4.0,-999.0,57,-99.99,,,-99.99,,2013-03-06 04:22:00,
2013-03-05 23:32:00,39.0,25.0,29.84,ESE,114,1.0,-999.0,57,-99.99,,,-99.99,,2013-03-06 04:32:00,
2013-03-05 23:42:00,39.0,25.0,29.84,ESE,114,1.0,-999.0,57,-99.99,,,-99.99,,2013-03-06 04:42:00,
2013-03-05 23:52:00,38.0,25.0,29.83,ESE,121,2.0,-999.0,59,-99.99,,,-99.99,,2013-03-06 04:52:00,